Location: Waldport
(44.4270°N, 124.0680°W)
Time: 17:11:10
(UTC-07:00)

Amateur Radio Satellites - All Passes

Search period start: 26 September 2016 16:41
Search period end: 27 September 2016 16:41
Location: Waldport, 44.4270°N, 124.0680°W

Satellite Date Start Highest point End Downlink Frequencies (MHz)
Time Altitude Azimuth
NOAA 15 26 Sep 16:46:24 16:48:14 12° 54° (NE) 16:50:03 137.62
ITAMSAT 1 26 Sep 16:46:53 16:50:16 18° 269° (W) 16:53:42 435.822/435.867
AIST 1 26 Sep 16:51:35 16:55:49 52° 78° (ENE) 16:59:58
SO-50 26 Sep 16:52:20 16:57:09 68° 307° (NW) 17:01:55 436.795
HORYU 2 26 Sep 16:54:38 16:58:39 36° 69° (ENE) 17:02:42 437.375
O/OREOS (USA 219) 26 Sep 16:56:30 17:00:24 26° 55° (NE) 17:04:14 437.305
Cubesat XI-IV 26 Sep 16:57:14 16:59:03 12° 55° (NE) 17:00:53 437.490
CUTE-I 26 Sep 16:57:45 16:59:40 12° 55° (NE) 17:01:37 437.470
ITUPSAT 1 26 Sep 17:07:01 17:10:52 24° 296° (WNW) 17:14:43 437.325
STARS 26 Sep 17:12:34 17:16:18 27° 96° (E) 17:20:01 437.465
CUBESAT XI-V 26 Sep 17:15:24 17:17:52 14° 89° (E) 17:20:19 437.345
SWISSCUBE 26 Sep 17:21:36 17:24:36 17° 300° (WNW) 17:27:36 437.505
NOAA 18 26 Sep 17:24:40 17:28:16 18° 58° (ENE) 17:31:51 137.9125
MOZHAYETS 4 26 Sep 17:35:10 17:39:43 55° 288° (WNW) 17:44:15
BEESAT 26 Sep 17:35:11 17:37:39 14° 301° (WNW) 17:40:06 436.000
Cosmos 2504 26 Sep 17:52:48 17:57:52 20° 279° (W) 18:03:08 435.465 / 435.565
AO-7 26 Sep 17:56:06 18:01:26 18° 271° (W) 18:06:48 29.400- 29.500
GOMX 1 26 Sep 17:58:23 18:03:26 41° 70° (ENE) 18:08:16 467.674
Cosmos 2491 26 Sep 18:00:26 18:06:45 21° 300° (WNW) 18:13:08 435.465 / 435.565
BRITE-PL 26 Sep 18:00:55 18:06:38 89° 75° (ENE) 18:12:17 437.365/2234.400
CUSAT 1 26 Sep 18:09:10 18:10:21 10° 72° (ENE) 18:11:33 437.405
KKS-1 26 Sep 18:11:09 18:15:13 36° 291° (WNW) 18:19:15 437.445
NOAA 15 26 Sep 18:21:47 18:27:04 73° 73° (ENE) 18:32:24 137.62
DOVE 4 26 Sep 18:27:31 18:32:01 34° 69° (ENE) 18:36:18 437.250
LilacSat-2 26 Sep 18:29:02 18:32:46 64° 74° (ENE) 18:36:30 437.200
GONETS M04 26 Sep 18:30:32 18:35:47 17° 56° (NE) 18:40:58
AIST 1 26 Sep 18:30:41 18:32:55 14° 276° (W) 18:35:07
HORYU 2 26 Sep 18:31:46 18:35:18 23° 266° (W) 18:38:50 437.375
Cubesat XI-IV 26 Sep 18:32:55 18:38:12 74° 73° (ENE) 18:43:32 437.490
CUTE-I 26 Sep 18:33:32 18:38:49 76° 73° (ENE) 18:44:08 437.470
HO-68 26 Sep 18:34:09 18:39:19 22° 54° (NE) 18:44:28 435.675
O/OREOS (USA 219) 26 Sep 18:35:38 18:39:54 38° 254° (WSW) 18:44:08 437.305
SO-50 26 Sep 18:35:43 18:38:30 15° 328° (NNW) 18:41:16 436.795
STARS 26 Sep 18:48:49 18:52:38 30° 293° (WNW) 18:56:26 437.465
CUBESAT XI-V 26 Sep 18:51:02 18:55:43 66° 287° (WNW) 19:00:20 437.345
CUTE 1.7 + AOD 2 26 Sep 18:56:07 18:57:46 12° 60° (ENE) 18:59:24 437.475
CANX-2 26 Sep 18:56:28 18:58:39 14° 62° (ENE) 19:00:51 2200.000
NOAA 18 26 Sep 19:02:51 19:08:19 74° 256° (WSW) 19:13:48 137.9125
Cosmos 2499 26 Sep 19:13:08 19:18:48 23° 65° (ENE) 19:24:43 435.465 / 435.565
STRAND 1 26 Sep 19:21:54 19:24:36 14° 89° (E) 19:27:17 437.568
DANDE 26 Sep 19:24:01 19:26:55 15° 76° (ENE) 19:30:11 436.750
CUBEBUG 2 26 Sep 19:32:52 19:33:58 11° 60° (ENE) 19:35:03 437.445
GOMX 1 26 Sep 19:36:58 19:41:34 28° 266° (W) 19:46:02 467.674
BRITE-PL 26 Sep 19:42:53 19:45:45 14° 273° (W) 19:48:36 437.365/2234.400
CUSAT 1 26 Sep 19:44:24 19:50:26 61° 94° (E) 19:57:53 437.405
CINEMA 3 26 Sep 19:49:24 19:53:49 58° 74° (ENE) 19:58:04 145.822/145.860
UWE-3 26 Sep 19:53:17 19:54:51 12° 61° (ENE) 19:56:26 435.000/436.395/437.385
RS-15 26 Sep 19:54:00 20:04:18 40° 107° (ESE) 20:15:03 29.354- 29.394
NOAA 15 26 Sep 20:04:19 20:07:24 15° 271° (W) 20:10:30 137.62
DOVE 4 26 Sep 20:05:18 20:09:42 30° 264° (W) 20:13:55 437.250
COMPASS 1 26 Sep 20:07:12 20:10:53 31° 69° (ENE) 20:14:36 437.405
Cubesat XI-IV 26 Sep 20:15:49 20:18:51 15° 271° (W) 20:21:54 437.490
CUTE-I 26 Sep 20:16:31 20:19:27 15° 271° (W) 20:22:24 437.470
HO-68 26 Sep 20:19:00 20:26:12 85° 253° (WSW) 20:33:25 435.675
ZACube-1 26 Sep 20:24:29 20:27:04 16° 64° (ENE) 20:29:39 437.345
Oscar 11 26 Sep 20:24:47 20:27:35 17° 63° (ENE) 20:30:24 145.826/435.025
GONETS M04 26 Sep 20:25:34 20:34:26 72° 79° (E) 20:43:10
CUTE 1.7 + AOD 2 26 Sep 20:28:46 20:33:00 75° 259° (W) 20:37:16 437.475
CANX-2 26 Sep 20:29:48 20:34:00 63° 260° (W) 20:38:14 2200.000
SEEDS 26 Sep 20:32:39 20:36:50 85° 79° (E) 20:41:06 437.485
AO-85 26 Sep 20:54:36 20:57:56 17° 110° (ESE) 21:01:08 145.980
ISS 26 Sep 20:56:02 20:58:36 21° 136° (SE) 21:01:10 145.825
DELFI C3 26 Sep 20:57:11 20:59:20 14° 63° (ENE) 21:01:29 145.870
AAUSAT CUBESAT 2 26 Sep 20:59:01 21:03:11 90° 71° (ENE) 21:07:24 437.432
STRAND 1 26 Sep 20:59:11 21:04:21 76° 286° (WNW) 21:09:29 437.568
DANDE 26 Sep 21:03:10 21:08:15 84° 281° (W) 21:15:06 436.750
Cosmos 2499 26 Sep 21:05:11 21:12:40 77° 264° (W) 21:20:43 435.465 / 435.565
CUBEBUG 2 26 Sep 21:05:47 21:10:00 79° 256° (WSW) 21:14:11 437.445
FUNcube-1 26 Sep 21:17:35 21:21:36 53° 73° (ENE) 21:25:39 145.935
UWE-3 26 Sep 21:26:37 21:30:46 70° 257° (WSW) 21:34:55 435.000/436.395/437.385
CUSAT 1 26 Sep 21:27:34 21:33:06 29° 297° (WNW) 21:39:32 437.405
CINEMA 3 26 Sep 21:28:53 21:31:17 14° 269° (W) 21:33:39 145.822/145.860
COMPASS 1 26 Sep 21:43:02 21:46:27 24° 266° (W) 21:49:54 437.405
ZACube-1 26 Sep 21:58:59 22:03:00 48° 261° (W) 22:07:02 437.345
Oscar 11 26 Sep 21:59:08 22:03:19 51° 261° (W) 22:07:33 145.826/435.025
RS-15 26 Sep 22:04:22 22:16:02 69° 311° (NW) 22:28:21 29.354- 29.394
HO-68 26 Sep 22:10:46 22:14:54 16° 272° (W) 22:19:03 435.675
GONETS M04 26 Sep 22:23:34 22:30:23 26° 280° (W) 22:37:09
PRISM 26 Sep 22:25:23 22:29:33 85° 286° (WNW) 22:33:40 437.425
HUMSAT D 26 Sep 22:29:45 22:33:49 72° 75° (ENE) 22:37:56 437.325/437.525
DELFI C3 26 Sep 22:29:48 22:33:42 54° 259° (W) 22:37:41 145.870
UNISAT 6 26 Sep 22:30:39 22:33:22 16° 91° (E) 22:36:03 437.425
ISS 26 Sep 22:31:38 22:34:51 57° 334° (NNW) 22:38:06 145.825
AO-85 26 Sep 22:32:46 22:37:57 73° 306° (NW) 22:42:48 145.980
STRAND 1 26 Sep 22:40:56 22:42:38 12° 305° (NW) 22:44:21 437.568
DANDE 26 Sep 22:49:17 22:52:36 15° 307° (NW) 22:56:21 436.750
ESTCUBE 1 26 Sep 22:51:28 22:55:01 23° 65° (ENE) 22:58:36 437.505/2401.250
FUNcube-1 26 Sep 22:56:06 22:58:12 14° 270° (W) 23:00:19 145.935
VELOX 1 26 Sep 22:57:17 22:59:35 14° 60° (ENE) 23:01:53 145.980
Cosmos 2499 26 Sep 23:01:00 23:04:36 14° 283° (WNW) 23:08:17 435.465 / 435.565
CUBEBUG 1 26 Sep 23:03:32 23:06:43 20° 64° (ENE) 23:09:52 437.445
ANTELSAT 26 Sep 23:05:04 23:09:07 35° 97° (E) 23:13:12 437.575/2403.000
AUBIESAT-1 26 Sep 23:22:41 23:25:41 21° 62° (ENE) 23:28:32 437.475
TIGRISAT 26 Sep 23:25:45 23:30:04 54° 100° (E) 23:34:27 435.000
SO-50 26 Sep 23:42:22 23:46:18 27° 42° (NE) 23:50:09 436.795
AISAT 26 Sep 23:47:34 23:51:47 44° 70° (ENE) 23:56:01 437.250
SPROUT 26 Sep 23:49:27 23:52:52 24° 66° (ENE) 23:56:18 437.525
M-CUBED/EXP-1 PRIME 26 Sep 23:57:50 00:01:56 60° 69° (ENE) 00:05:44 437.505
DUCHIFAT 1 26 Sep 23:58:12 00:00:40 15° 91° (E) 00:03:06 145.980
QB50P1 26 Sep 23:58:44 00:01:35 18° 92° (E) 00:04:27 145.935-145.965
UKube-1 27 Sep 00:00:55 00:04:39 29° 67° (ENE) 00:08:25 .
UNISAT 6 27 Sep 00:06:05 00:10:22 53° 287° (WNW) 00:14:43 437.425
ISS 27 Sep 00:09:06 00:11:49 23° 353° (N) 00:14:32 145.825
HUMSAT D 27 Sep 00:09:46 00:09:56 10° 272° (W) 00:10:07 437.325/437.525
POPSAT HIP 1 27 Sep 00:11:43 00:15:08 24° 94° (E) 00:18:32 437.405
Cosmos 2491 27 Sep 00:15:18 00:17:21 11° 49° (NE) 00:19:24 435.465 / 435.565
AO-85 27 Sep 00:16:07 00:19:10 16° 325° (NW) 00:22:06 145.980
50 SAT 27 Sep 00:19:16 00:22:54 88° 77° (ENE) 00:26:35 437.505
RS-15 27 Sep 00:20:51 00:31:18 33° 341° (NNW) 00:42:05 29.354- 29.394
DX 1 27 Sep 00:26:41 00:31:02 70° 74° (ENE) 00:35:25 434.975-435.025
ESTCUBE 1 27 Sep 00:27:21 00:31:36 39° 262° (W) 00:35:54 437.505/2401.250
NANOSAT C BR1 27 Sep 00:28:31 00:32:22 34° 97° (E) 00:36:12 145.865
JAS-2 27 Sep 00:30:01 00:37:21 40° 94° (E) 00:44:23 435.910
VELOX 1 27 Sep 00:31:03 00:35:29 70° 258° (WSW) 00:39:57 145.980
CUBEBUG 1 27 Sep 00:38:25 00:42:40 45° 261° (W) 00:46:56 437.445
ANTELSAT 27 Sep 00:42:07 00:45:40 25° 293° (WNW) 00:49:16 437.575/2403.000
QB50P2 27 Sep 00:50:39 00:54:52 69° 101° (ESE) 00:59:04 145.880/145.840
POLYITAN 1 27 Sep 00:52:52 00:57:05 69° 102° (ESE) 01:01:17 437.675
AUBIESAT-1 27 Sep 00:56:11 00:59:58 36° 256° (WSW) 01:03:31 437.475
TIGRISAT 27 Sep 01:03:36 01:06:22 17° 297° (WNW) 01:09:10 435.000
TISAT 1 27 Sep 01:13:08 01:17:01 38° 70° (ENE) 01:20:54 437.305
SWISSCUBE 27 Sep 01:16:15 01:18:06 12° 57° (ENE) 01:19:58 437.505
SO-50 27 Sep 01:22:36 01:26:58 46° 242° (WSW) 01:31:14 436.795
SPROUT 27 Sep 01:24:47 01:28:38 33° 263° (W) 01:32:32 437.525
AISAT 27 Sep 01:25:14 01:28:27 19° 267° (W) 01:31:41 437.250
BEESAT 27 Sep 01:28:34 01:31:07 14° 59° (ENE) 01:33:38 436.000
DUCHIFAT 1 27 Sep 01:32:35 01:36:38 50° 288° (WNW) 01:40:41 145.980
QB50P1 27 Sep 01:33:35 01:37:35 43° 289° (WNW) 01:41:34 145.935-145.965
BEESAT 3 27 Sep 01:33:47 01:37:22 36° 117° (ESE) 01:41:00 437.485
M-CUBED/EXP-1 PRIME 27 Sep 01:34:54 01:36:41 12° 262° (W) 01:38:25 437.505
UKube-1 27 Sep 01:36:56 01:40:40 28° 264° (W) 01:44:24 .
BUGSAT 1 27 Sep 01:39:15 01:43:17 80° 103° (ESE) 01:47:19 437.445
ISS 27 Sep 01:46:06 01:48:59 28° 13° (NNE) 01:51:54 145.825
POPSAT HIP 1 27 Sep 01:47:12 01:50:57 32° 291° (WNW) 01:54:42 437.405
NANOSAT C BR1 27 Sep 02:04:37 02:07:54 23° 294° (WNW) 02:11:13 145.865
DX 1 27 Sep 02:06:01 02:07:42 12° 271° (W) 02:09:23 434.975-435.025
Cosmos 2491 27 Sep 02:08:14 02:16:50 51° 74° (ENE) 02:25:20 435.465 / 435.565
JAS-2 27 Sep 02:14:55 02:22:25 50° 294° (WNW) 02:29:42 435.910
Oscar 19 27 Sep 02:25:29 02:30:27 46° 99° (E) 02:35:23 437.125/150
BEESAT 2 27 Sep 02:26:48 02:30:42 67° 122° (ESE) 02:34:40 435.950
QB50P2 27 Sep 02:28:15 02:30:07 13° 299° (WNW) 02:32:01 145.880/145.840
POLYITAN 1 27 Sep 02:30:28 02:32:21 13° 299° (WNW) 02:34:12 437.675
ITUPSAT 1 27 Sep 02:36:50 02:41:30 59° 72° (ENE) 02:46:13 437.325
RS-15 27 Sep 02:38:10 02:48:45 31° 16° (NNE) 02:59:21 29.354- 29.394
TISAT 1 27 Sep 02:49:42 02:52:48 20° 267° (W) 02:55:53 437.305
SWISSCUBE 27 Sep 02:50:24 02:55:09 89° 70° (ENE) 02:59:58 437.505
MOZHAYETS 4 27 Sep 03:02:47 03:06:04 20° 63° (ENE) 03:09:22
BEESAT 27 Sep 03:03:31 03:08:16 76° 257° (WSW) 03:13:04 436.000
YUBILEINY 27 Sep 03:10:11 03:18:26 47° 88° (E) 03:26:38 435.215
BEESAT 3 27 Sep 03:11:50 03:15:07 25° 316° (NW) 03:18:26 437.485
Gurwin Techsat 1B 27 Sep 03:15:13 03:20:31 64° 101° (ESE) 03:25:48 435.225
ITAMSAT 1 27 Sep 03:17:17 03:21:00 19° 92° (E) 03:24:41 435.822/435.867
BUGSAT 1 27 Sep 03:17:31 03:18:03 10° 300° (WNW) 03:18:34 437.445
ISS 27 Sep 03:22:28 03:25:46 81° 212° (SSW) 03:29:03 145.825
KKS-1 27 Sep 03:34:34 03:38:17 27° 66° (ENE) 03:42:01 437.445
AO-7 27 Sep 03:59:33 04:06:31 29° 94° (E) 04:13:25 29.400- 29.500
JAS-2 27 Sep 04:02:47 04:05:37 12° 314° (NW) 04:08:26 435.910
Oscar 19 27 Sep 04:05:22 04:09:31 25° 297° (WNW) 04:13:37 437.125/150
Cosmos 2491 27 Sep 04:05:29 04:13:25 39° 275° (W) 04:21:18 435.465 / 435.565
BEESAT 2 27 Sep 04:06:17 04:08:57 17° 321° (NW) 04:11:38 435.950
STARS 27 Sep 04:10:39 04:14:30 30° 67° (ENE) 04:18:20 437.465
ITUPSAT 1 27 Sep 04:16:46 04:19:44 16° 269° (W) 04:22:43 437.325
CUBESAT XI-V 27 Sep 04:20:09 04:23:17 18° 62° (ENE) 04:26:26 437.345
SWISSCUBE 27 Sep 04:32:57 04:33:37 10° 273° (W) 04:34:17 437.505
CUSAT 1 27 Sep 04:37:25 04:40:35 13° 50° (NE) 04:43:37 437.405
Cosmos 2504 27 Sep 04:38:22 04:45:39 63° 93° (E) 04:52:43 435.465 / 435.565
MOZHAYETS 4 27 Sep 04:38:29 04:42:53 48° 261° (W) 04:47:21
AIST 2 27 Sep 04:41:06 04:45:08 64° 122° (ESE) 04:49:15 435.215
RS-15 27 Sep 04:52:02 05:04:22 64° 47° (NE) 05:16:27 29.354- 29.394
PCSat 27 Sep 04:55:32 05:00:37 42° 113° (ESE) 05:05:43 145.827
ITAMSAT 1 27 Sep 04:55:42 05:00:50 58° 289° (WNW) 05:05:56 435.822/435.867
Gurwin Techsat 1B 27 Sep 04:56:14 04:59:59 20° 300° (WNW) 05:03:43 435.225
ISS 27 Sep 05:00:37 05:01:45 11° 229° (SW) 05:02:55 145.825
YUBILEINY 27 Sep 05:07:07 05:15:18 42° 289° (WNW) 05:23:31 435.215
KKS-1 27 Sep 05:10:45 05:14:45 32° 263° (W) 05:18:46 437.445
AIST 1 27 Sep 05:22:42 05:26:29 29° 90° (E) 05:30:16
AO-85 27 Sep 05:23:35 05:26:56 22° 40° (NE) 05:30:06 145.980
STARS 27 Sep 05:47:05 05:50:50 27° 264° (W) 05:54:35 437.465
AO-7 27 Sep 05:51:39 05:59:52 68° 294° (WNW) 06:08:03 29.400- 29.500
CUBESAT XI-V 27 Sep 05:55:36 06:00:13 57° 260° (W) 06:04:53 437.345
DANDE 27 Sep 05:56:55 06:03:16 23° 60° (ENE) 06:09:30 436.750
BRITE-PL 27 Sep 06:05:34 06:09:33 25° 92° (E) 06:13:16 437.365/2234.400
CUSAT 1 27 Sep 06:16:57 06:24:41 54° 72° (ENE) 06:31:17 437.405
HORYU 2 27 Sep 06:19:43 06:24:06 56° 101° (E) 06:28:29 437.375
AIST 2 27 Sep 06:21:05 06:24:02 19° 321° (NW) 06:27:01 435.215
Cosmos 2504 27 Sep 06:33:39 06:39:33 26° 293° (WNW) 06:45:22 435.465 / 435.565
NOAA 15 27 Sep 06:35:54 06:40:09 24° 93° (E) 06:44:21 137.62
STRAND 1 27 Sep 06:38:51 06:42:58 25° 63° (ENE) 06:47:05 437.568
PCSat 27 Sep 06:39:13 06:44:07 33° 312° (NW) 06:49:02 145.827
Cubesat XI-IV 27 Sep 06:48:57 06:53:22 26° 94° (E) 06:57:46 437.490
CUTE-I 27 Sep 06:49:21 06:53:47 26° 94° (E) 06:58:14 437.470
AIST 1 27 Sep 07:00:19 07:04:03 26° 287° (WNW) 07:07:46
AO-85 27 Sep 07:03:37 07:07:38 48° 241° (WSW) 07:11:25 145.980
RS-15 27 Sep 07:05:07 07:16:31 46° 251° (WSW) 07:27:41 29.354- 29.394
O/OREOS (USA 219) 27 Sep 07:11:14 07:14:32 20° 101° (E) 07:17:52 437.305
NOAA 18 27 Sep 07:23:16 07:28:25 40° 98° (E) 07:33:33 137.9125
LilacSat-2 27 Sep 07:34:42 07:38:33 79° 102° (ESE) 07:42:24 437.200
GONETS M04 27 Sep 07:36:39 07:41:30 16° 74° (ENE) 07:46:22
GOMX 1 27 Sep 07:36:43 07:41:13 86° 99° (E) 07:45:27 467.674
DANDE 27 Sep 07:38:45 07:47:11 88° 80° (E) 07:55:11 436.750
BRITE-PL 27 Sep 07:43:39 07:48:10 37° 292° (WNW) 07:52:21 437.365/2234.400
CINEMA 3 27 Sep 07:44:39 07:45:37 11° 89° (E) 07:46:35 145.822/145.860
AO-7 27 Sep 07:46:06 07:51:10 18° 315° (NW) 07:56:14 29.400- 29.500
HO-68 27 Sep 07:46:42 07:50:56 16° 88° (E) 07:55:10 435.675
Cosmos 2499 27 Sep 07:55:54 07:59:10 14° 77° (ENE) 08:02:24 435.465 / 435.565
HORYU 2 27 Sep 07:57:24 08:00:14 17° 298° (WNW) 08:03:04 437.375
CUSAT 1 27 Sep 07:59:33 08:06:18 33° 275° (W) 08:12:12 437.405
DOVE 4 27 Sep 08:01:58 08:06:10 67° 101° (E) 08:10:17 437.250
CUTE 1.7 + AOD 2 27 Sep 08:12:58 08:15:49 17° 91° (E) 08:18:40 437.475
CANX-2 27 Sep 08:13:47 08:16:59 20° 92° (E) 08:20:11 2200.000
NOAA 15 27 Sep 08:15:04 08:20:09 48° 291° (WNW) 08:25:12 137.62
SEEDS 27 Sep 08:16:33 08:18:31 13° 89° (E) 08:20:28 437.485
STRAND 1 27 Sep 08:17:02 08:21:52 45° 261° (W) 08:26:48 437.568
Cubesat XI-IV 27 Sep 08:28:32 08:33:37 45° 291° (WNW) 08:38:42 437.490
CUTE-I 27 Sep 08:28:56 08:34:00 44° 292° (WNW) 08:39:04 437.470
AAUSAT CUBESAT 2 27 Sep 08:41:21 08:43:14 13° 89° (E) 08:45:07 437.432
O/OREOS (USA 219) 27 Sep 08:49:13 08:53:36 45° 299° (WNW) 08:58:03 437.305
CUBEBUG 2 27 Sep 08:55:21 08:58:22 18° 93° (E) 09:01:26 437.445
NOAA 18 27 Sep 09:04:13 09:08:56 31° 296° (WNW) 09:13:39 137.9125
BEESAT 2 27 Sep 09:06:59 09:08:36 12° 34° (NNE) 09:10:13 435.950
UWE-3 27 Sep 09:14:50 09:18:02 20° 93° (E) 09:21:16 435.000/436.395/437.385
PRISM 27 Sep 09:15:51 09:20:01 85° 75° (ENE) 09:24:14 437.425
GOMX 1 27 Sep 09:17:26 09:18:32 11° 303° (WNW) 09:19:37 467.674
CINEMA 3 27 Sep 09:19:05 09:23:14 69° 285° (WNW) 09:27:26 145.822/145.860
DANDE 27 Sep 09:22:57 09:28:58 23° 279° (W) 09:34:47 436.750
COMPASS 1 27 Sep 09:23:12 09:27:17 46° 99° (E) 09:31:20 437.405
GONETS M04 27 Sep 09:27:57 09:36:47 78° 95° (E) 09:45:39
UNISAT 6 27 Sep 09:31:31 09:34:17 17° 63° (ENE) 09:37:04 437.425
HO-68 27 Sep 09:32:25 09:39:38 87° 108° (ESE) 09:46:47 435.675
DOVE 4 27 Sep 09:41:32 09:43:19 12° 300° (WNW) 09:45:05 437.250
Cosmos 2499 27 Sep 09:43:55 09:51:04 84° 97° (E) 09:58:10 435.465 / 435.565
Oscar 11 27 Sep 09:44:54 09:48:32 25° 94° (E) 09:52:09 145.826/435.025
ZACube-1 27 Sep 09:45:25 09:49:07 27° 95° (E) 09:52:50 437.345
CUTE 1.7 + AOD 2 27 Sep 09:47:46 09:51:54 46° 288° (WNW) 09:56:01 437.475
CANX-2 27 Sep 09:48:58 09:52:59 39° 289° (WNW) 09:57:00 2200.000
BEESAT 3 27 Sep 09:49:06 09:52:51 38° 49° (NE) 09:56:35 437.485
SEEDS 27 Sep 09:50:24 09:54:37 61° 286° (WNW) 09:58:49 437.485
ANTELSAT 27 Sep 10:05:35 10:09:30 36° 70° (ENE) 10:13:24 437.575/2403.000
DELFI C3 27 Sep 10:06:30 10:09:08 17° 92° (E) 10:11:45 145.870
HUMSAT D 27 Sep 10:14:00 10:14:50 10° 88° (E) 10:15:39 437.325/437.525
AAUSAT CUBESAT 2 27 Sep 10:14:57 10:19:07 60° 286° (WNW) 10:23:13 437.432
TIGRISAT 27 Sep 10:26:00 10:30:09 56° 73° (ENE) 10:34:20 435.000
CUBEBUG 2 27 Sep 10:31:09 10:35:11 42° 288° (WNW) 10:39:18 437.445
FUNcube-1 27 Sep 10:39:27 10:43:46 87° 287° (WNW) 10:48:11 145.935
BEESAT 2 27 Sep 10:43:10 10:47:11 68° 55° (NE) 10:51:10 435.950
JAS-2 27 Sep 10:45:02 10:49:57 22° 54° (NE) 10:55:14 435.910
UWE-3 27 Sep 10:50:37 10:54:38 40° 289° (WNW) 10:58:44 435.000/436.395/437.385
DUCHIFAT 1 27 Sep 10:52:06 10:54:29 15° 62° (ENE) 10:56:51 145.980
QB50P1 27 Sep 10:53:05 10:55:52 17° 63° (ENE) 10:58:39 145.935-145.965
COMPASS 1 27 Sep 10:59:38 11:02:29 18° 296° (WNW) 11:05:20 437.405
POPSAT HIP 1 27 Sep 11:05:56 11:09:14 23° 66° (ENE) 11:12:32 437.405
UNISAT 6 27 Sep 11:06:31 11:10:39 49° 260° (W) 11:14:48 437.425
Oscar 11 27 Sep 11:20:48 11:24:41 32° 291° (WNW) 11:28:33 145.826/435.025
HO-68 27 Sep 11:21:24 11:26:28 21° 307° (NW) 11:31:33 435.675
ZACube-1 27 Sep 11:21:36 11:25:23 30° 291° (WNW) 11:29:12 437.345
NANOSAT C BR1 27 Sep 11:22:10 11:25:53 31° 69° (ENE) 11:29:36 145.865
AIST 2 27 Sep 11:23:47 11:25:45 13° 33° (NNE) 11:27:43 435.215
PHONESAT 2.4 27 Sep 11:25:26 11:26:57 13° 155° (SSE) 11:28:28 2401.200-2431.200
BEESAT 3 27 Sep 11:27:12 11:30:18 22° 246° (WSW) 11:33:23 437.485
GONETS M04 27 Sep 11:27:35 11:34:36 26° 297° (WNW) 11:41:41
DELFI C3 27 Sep 11:40:22 11:44:10 41° 289° (WNW) 11:47:57 145.870
Cosmos 2499 27 Sep 11:40:27 11:45:09 18° 298° (WNW) 11:49:52 435.465 / 435.565
ANTELSAT 27 Sep 11:43:04 11:46:20 21° 267° (W) 11:49:35 437.575/2403.000
QB50P2 27 Sep 11:44:32 11:48:41 62° 74° (ENE) 11:52:52 145.880/145.840
HUMSAT D 27 Sep 11:46:41 11:50:56 75° 285° (WNW) 11:55:13 437.325/437.525
POLYITAN 1 27 Sep 11:46:46 11:50:55 63° 74° (ENE) 11:55:04 437.675
PCSat 27 Sep 11:59:39 12:02:00 13° 30° (NNE) 12:04:20 145.827
TIGRISAT 27 Sep 12:05:04 12:07:14 14° 270° (W) 12:09:24 435.000
Oscar 19 27 Sep 12:08:28 12:10:29 12° 56° (NE) 12:12:29 437.125/150
DX 1 27 Sep 12:16:18 12:16:50 10° 88° (E) 12:17:21 434.975-435.025
ESTCUBE 1 27 Sep 12:17:55 12:22:09 37° 98° (E) 12:26:20 437.505/2401.250
VELOX 1 27 Sep 12:20:16 12:23:27 19° 93° (E) 12:26:37 145.980
BEESAT 2 27 Sep 12:22:46 12:24:27 12° 251° (WSW) 12:26:08 435.950
CUBEBUG 1 27 Sep 12:25:28 12:29:14 28° 96° (E) 12:32:57 437.445
DUCHIFAT 1 27 Sep 12:25:38 12:29:43 56° 259° (W) 12:33:51 145.980
QB50P1 27 Sep 12:27:14 12:31:18 47° 261° (W) 12:35:22 145.935-145.965
JAS-2 27 Sep 12:27:30 12:33:59 84° 257° (WSW) 12:41:23 435.910
BUGSAT 1 27 Sep 12:30:10 12:34:15 68° 73° (ENE) 12:38:18 437.445
POPSAT HIP 1 27 Sep 12:41:00 12:44:51 34° 263° (W) 12:48:41 437.405
NANOSAT C BR1 27 Sep 12:58:14 13:01:38 24° 265° (W) 13:05:03 145.865
PHONESAT 2.4 27 Sep 12:59:53 13:02:34 32° 171° (S) 13:05:16 2401.200-2431.200
Gurwin Techsat 1B 27 Sep 13:00:29 13:03:57 18° 59° (ENE) 13:07:26 435.225
AIST 2 27 Sep 13:00:48 13:05:01 70° 54° (NE) 13:09:12 435.215
SPROUT 27 Sep 13:08:36 13:12:30 34° 97° (E) 13:16:23 437.525
M-CUBED/EXP-1 PRIME 27 Sep 13:10:02 13:12:52 26° 102° (ESE) 13:15:40 437.505
AISAT 27 Sep 13:12:04 13:16:28 71° 103° (ESE) 13:20:50 437.250
AO-7 27 Sep 13:14:01 13:17:09 13° 38° (NE) 13:20:17 29.400- 29.500
YUBILEINY 27 Sep 13:18:20 13:25:17 25° 63° (ENE) 13:32:09 435.215
50 SAT 27 Sep 13:18:40 13:22:21 85° 104° (ESE) 13:26:01 437.505
UKube-1 27 Sep 13:21:38 13:25:43 40° 99° (E) 13:29:47 .
QB50P2 27 Sep 13:23:09 13:24:54 12° 270° (W) 13:26:39 145.880/145.840
POLYITAN 1 27 Sep 13:25:25 13:27:08 12° 271° (W) 13:28:50 437.675
PCSat 27 Sep 13:41:27 13:46:44 50° 53° (NE) 13:52:00 145.827
Oscar 19 27 Sep 13:43:45 13:48:57 79° 74° (ENE) 13:54:10 437.125/150
DX 1 27 Sep 13:49:12 13:53:34 79° 286° (WNW) 13:57:53 434.975-435.025
ESTCUBE 1 27 Sep 13:55:06 13:58:46 24° 295° (WNW) 14:02:24 437.505/2401.250
VELOX 1 27 Sep 13:55:56 14:00:08 43° 290° (WNW) 14:04:16 145.980
CUBEBUG 1 27 Sep 14:01:44 14:05:29 29° 292° (WNW) 14:09:11 437.445
AUBIESAT-1 27 Sep 14:07:07 14:10:25 64° 290° (WNW) 14:13:41 437.475
BUGSAT 1 27 Sep 14:09:02 14:10:02 11° 271° (W) 14:11:04 437.445
JAS-2 27 Sep 14:16:38 14:20:17 15° 277° (W) 14:24:10 435.910
Cosmos 2504 27 Sep 14:28:19 14:34:09 24° 66° (ENE) 14:40:12 435.465 / 435.565
TISAT 1 27 Sep 14:30:27 14:34:32 53° 100° (E) 14:38:37 437.305
PHONESAT 2.4 27 Sep 14:35:40 14:38:23 34° 188° (S) 14:41:07 2401.200-2431.200
ITAMSAT 1 27 Sep 14:36:33 14:41:12 35° 66° (ENE) 14:45:53 435.822/435.867
ITUPSAT 1 27 Sep 14:37:20 14:39:38 13° 89° (E) 14:41:55 437.325
Gurwin Techsat 1B 27 Sep 14:38:02 14:43:19 71° 258° (WSW) 14:48:39 435.225
AIST 2 27 Sep 14:40:58 14:42:57 13° 251° (WSW) 14:44:55 435.215
SPROUT 27 Sep 14:44:54 14:48:16 23° 294° (WNW) 14:51:37 437.525
M-CUBED/EXP-1 PRIME 27 Sep 14:44:59 14:47:17 18° 299° (WNW) 14:49:34 437.505
SWISSCUBE 27 Sep 14:49:40 14:53:12 20° 93° (E) 14:56:44 437.505
AISAT 27 Sep 14:50:14 14:52:22 13° 300° (WNW) 14:54:30 437.250
UKube-1 27 Sep 14:58:16 15:01:30 21° 296° (WNW) 15:04:43 .
AO-7 27 Sep 15:00:05 15:07:54 48° 61° (ENE) 15:15:43 29.400- 29.500
BEESAT 27 Sep 15:02:26 15:06:19 24° 94° (E) 15:10:11 436.000
Cosmos 2491 27 Sep 15:11:11 15:19:38 55° 90° (E) 15:28:09 435.465 / 435.565
YUBILEINY 27 Sep 15:14:21 15:23:03 77° 265° (W) 15:31:42 435.215
PCSat 27 Sep 15:25:23 15:29:50 26° 251° (WSW) 15:34:16 145.827
Oscar 19 27 Sep 15:26:17 15:28:52 14° 271° (W) 15:31:28 437.125/150
SO-50 27 Sep 15:37:47 15:42:15 39° 117° (ESE) 15:46:42 436.795
TISAT 1 27 Sep 16:07:18 16:09:46 15° 298° (WNW) 16:12:14 437.305
PHONESAT 2.4 27 Sep 16:12:13 16:14:04 15° 203° (SSW) 16:15:53 2401.200-2431.200
ITUPSAT 1 27 Sep 16:13:10 16:17:59 73° 286° (WNW) 16:22:46 437.325
ITAMSAT 1 27 Sep 16:16:06 16:20:40 32° 264° (W) 16:25:17 435.822/435.867
Cosmos 2504 27 Sep 16:20:48 16:28:10 71° 266° (W) 16:36:00 435.465 / 435.565
SWISSCUBE 27 Sep 16:26:37 16:31:15 48° 290° (WNW) 16:35:51 437.505
MOZHAYETS 4 27 Sep 16:31:41 16:35:57 35° 97° (E) 16:40:10
